Willimantic, CT

8:18 AM EST on December 13, 2019 (GMT -0500)
Windham

Weather History for KIJD - October, 2019

Change the Weather History Date:

Friday, October 25, 2019

  Actual Average Record
Temperature  
Mean Temperature 50 °F -  
Max Temperature 66 °F 61 °F 79 °F (2001)
Min Temperature 37 °F 34 °F 17 °F (1962)
Degree Days  
Heating Degree Days 14    
Moisture  
Dew Point 43 °F    
Average Humidity 75    
Maximum Humidity 97    
Minimum Humidity 45    
Precipitation  
Precipitation 0.00 in - - ()
Sea Level Pressure  
Sea Level Pressure 30.26 in    
Wind  
Wind Speed 1 mph ()    
Max Wind Speed 7 mph    
Max Gust Speed -    
Visibility 10.0 miles    
Events      
Averages and records for this station are not official NWS values.
T = Trace of Precipitation, MM = Missing Value Source: Averaged Metar Reports

Daily Weather History Graph

Daily Weather History Graph

Search for Another Location

Airport or City:

Astronomy

Oct. 25, 2019 Rise Set
Actual Time 7:12 AM EDT 5:52 PM EDT
Civil Twilight 6:43 AM EDT 6:21 PM EDT
Nautical Twilight 6:11 AM EDT 6:53 PM EDT
Astronomical Twilight 5:38 AM EDT 7:25 PM EDT
Moon 3:47 AM EDT (10/25) 4:56 PM EDT (10/25)
Length of Visible Light 11h 37m
Length of Day
10h 40m
Waning Crescent, 9% of the Moon is Illuminated
Oct 25
Waning Crescent
Oct 27
New
Nov 4
First Quarter
Nov 12
Full
Nov 19
Last Quarter

Hourly Weather History & Observations

Time (EDT) Temp. Windchill Dew Point Humidity Pressure Visibility Wind Dir Wind Speed Gust Speed Precip Events Conditions
12:52 AM 42.1 °F - 39.0 °F 89% 30.31 in 10.0 mi Calm Calm - N/A   Clear
1:52 AM 43.0 °F - 41.0 °F 93% 30.32 in 10.0 mi Calm Calm - N/A   Clear
2:52 AM 41.0 °F - 39.9 °F 96% 30.32 in 10.0 mi Calm Calm - N/A   Clear
3:52 AM 39.0 °F 36.8 °F 37.9 °F 96% 30.31 in 10.0 mi NNE 3.5 mph - N/A   Clear
4:52 AM 39.0 °F - 37.9 °F 96% 30.32 in 10.0 mi Calm Calm - N/A   Clear
5:52 AM 39.9 °F - 37.9 °F 93% 30.33 in 10.0 mi Calm Calm - N/A   Unknown
6:52 AM 37.9 °F 35.5 °F 36.0 °F 93% 30.33 in 10.0 mi NE 3.5 mph - N/A   Clear
7:52 AM 37.9 °F - 37.0 °F 97% 30.33 in 10.0 mi Calm Calm - N/A   Clear
8:52 AM 43.0 °F - 41.0 °F 93% 30.35 in 10.0 mi Calm Calm - N/A   Clear
9:52 AM 46.9 °F - 43.0 °F 86% 30.34 in 10.0 mi North - - N/A   Clear
10:52 AM 55.0 °F - 44.1 °F 67% 30.32 in 10.0 mi Calm Calm - N/A   Clear
11:52 AM 61.0 °F - 45.0 °F 56% 30.30 in 10.0 mi SSW 4.6 mph - N/A   Clear
12:52 PM 63.0 °F - 44.1 °F 50% 30.26 in 10.0 mi SSW 6.9 mph - N/A   Clear
1:52 PM 64.9 °F - 43.0 °F 45% 30.23 in 10.0 mi South 3.5 mph - N/A   Clear
2:52 PM 64.9 °F - 43.0 °F 45% 30.22 in 10.0 mi Variable 3.5 mph - N/A   Clear
3:52 PM 64.0 °F - 43.0 °F 46% 30.20 in 10.0 mi WSW 3.5 mph - N/A   Clear
4:52 PM 63.0 °F - 43.0 °F 48% 30.19 in 10.0 mi SSW 3.5 mph - N/A   Clear
5:52 PM 61.0 °F - 44.1 °F 54% 30.19 in 10.0 mi SSW 4.6 mph - N/A   Clear
6:52 PM 57.9 °F - 44.1 °F 60% 30.19 in 10.0 mi Calm Calm - N/A   Clear
7:52 PM 55.9 °F - 46.0 °F 69% 30.18 in 10.0 mi Calm Calm - N/A   Clear
8:52 PM 53.1 °F - 46.9 °F 80% 30.18 in 10.0 mi Calm Calm - N/A   Clear
9:52 PM 52.0 °F - 48.0 °F 86% 30.19 in 10.0 mi Calm Calm - N/A   Clear
10:52 PM 52.0 °F - 48.0 °F 86% 30.19 in 10.0 mi Calm Calm - N/A   Overcast
11:52 PM 52.0 °F - 48.0 °F 86% 30.18 in 10.0 mi Calm Calm - N/A   Overcast